Location: Dodgeville, WI 53533, USA
(43.0344°N, 90.0900°W)
Time: 22:42:00
(UTC-06:00)

ISS - Pass Details

Date: 30 January 2021
Orbit: 417 x 422 km, 51.6° (Epoch: 05 March)

Event Time Altitude Azimuth Distance (km) Brightness Sun altitude
Rises 19:39:06 0° 304° (NW) 2,375 0.9 -27.2°
Reaches altitude 10° 19:41:14 10° 310° (NW) 1,508 -0.3 -27.6°
Enters shadow 19:41:59 16° 313° (NW) 1,215 -0.9 -27.7°
